This is the latest recevied weather packets stored in our database for station/object F5IOR. If no packets are shown the sender has not sent any weather packets the latest 10 day(s).
| Time | Temp. | Humidity | Pressure | Rain* | Wind** | Luminosity | Snow |
|---|---|---|---|---|---|---|---|
| 1788336487 | 16.67° C | 75% | 994.3 hPa | 0 mm | - | - | - |
| 1788336007 | 16.67° C | 75% | 994.3 hPa | 0 mm | - | - | - |
| 1788335767 | 16.11° C | 80% | 994.2 hPa | 0 mm | - | - | - |
| 1788335527 | 16.11° C | 80% | 994.2 hPa | 0 mm | - | - | - |
| 1788335287 | 16.11° C | 80% | 994.2 hPa | 0 mm | - | - | - |
| 1788335047 | 16.11° C | 80% | 994.2 hPa | 0 mm | - | - | - |
| 1788334927 | 16.11° C | 80% | 994.2 hPa | 0 mm | - | - | - |
| 1788334807 | 16.11° C | 80% | 994.2 hPa | 0 mm | - | - | - |
| 1788334687 | 16.11° C | 80% | 994.2 hPa | 0 mm | - | - | - |
| 1788334567 | 16.11° C | 80% | 994.2 hPa | 0 mm | - | - | - |
| 1788334507 | 16.11° C | 80% | 994.2 hPa | 0 mm | - | - | - |
| 1788334447 | 16.11° C | 80% | 994.2 hPa | 0 mm | - | - | - |
| 1788334387 | 16.11° C | 80% | 994.2 hPa | 0 mm | - | - | - |
| 1788289563 | 20.56° C | 56% | 992.1 hPa | 0 mm | - | - | - |
| 1788287763 | 21.67° C | 52% | 992 hPa | 0 mm | - | - | - |
| 1788285963 | 23.89° C | 43% | 991.8 hPa | 0 mm | - | - | - |
| 1788284163 | 24.44° C | 42% | 991.7 hPa | 0 mm | - | - | - |
| 1788282363 | 25° C | 39% | 991.7 hPa | 0 mm | - | - | - |
| 1788280563 | 25° C | 39% | 992 hPa | 0 mm | - | - | - |
| 1788278763 | 25.56° C | 38% | 992.3 hPa | 0 mm | - | - | - |
| 1788276963 | 25.56° C | 39% | 992.4 hPa | 0 mm | - | - | - |
| 1788275163 | 25.56° C | 40% | 992.8 hPa | 0 mm | - | - | - |
| 1788273363 | 25.56° C | 41% | 992.9 hPa | 0 mm | - | - | - |
| 1788271563 | 25.56° C | 41% | 993.1 hPa | 0 mm | - | - | - |
| 1788269763 | 25.56° C | 41% | 993.4 hPa | 0 mm | - | - | - |
* Rain latest hour (hover to see other rain measurements)
** Current wind speed in m/s (hover to see current wind gust speed)